Temperature
14 14 14 14 14 15 15 15 15 15 15 15 15 15 15 15 15 14 15 15 15 15 15 15 15 15 15 15 15 15 15 16 16 16 16 16 16 16
14 14 14 14 14 14 15 15 15 15 15 14 14 14 14 14 14 14 15 15 15 15 15 15 14 14 14 14 14 14 14 14 15 15 15 15 15 15
13 13 14 14 14 14 14 14 14 14 14 14 14 14 13 13 13 14 14 15 15 14 14 14 13 13 13 13 13 13 14 14 14 14 14 14 14 14
13 13 13 13 13 13 14 14 14 14 14 13 13 12 12 13 13 13 13 13 13 13 12 12 12 12 12 13 13 13 13 13 14 14 14 14 14 14
13 13 13 13 13 13 13 13 13 13 13 13 12 12 12 12 12 12 12 12 12 12 12 12 12 12 12 12 12 13 13 13 13 14 14 14 14 14
13 13 13 13 13 13 13 13 13 13 12 12 12 12 12 12 12 12 12 12 11 11 12 12 12 12 12 12 12 12 12 12 13 13 13 13 13 13
12 12 12 13 13 12 12 12 12 12 12 12 12 12 12 12 13 13 12 12 11 12 11 11 11 11 11 11 12 12 12 12 12 12 12 13 13 13
12 12 12 13 13 12 12 12 12 12 11 11 12 12 12 13 13 13 13 13 12 12 12 11 11 10 10 11 11 11 11 11 11 11 11 12 12 12
12 12 12 12 12 12 12 12 11 11 12 12 12 12 12 12 12 13 13 13 12 12 12 11 11 10 10 10 10 10 10 10 10 10 10 10 10 11
12 12 12 12 12 12 12 12 12 12 12 12 12 11 11 11 11 12 11 12 11 11 11 11 11 10 9 9 9 9 9 9 9 9 9 9 10 10
11 11 11 12 12 12 12 12 12 12 12 12 12 11 11 11 11 12 11 12 12 11 11 12 11 10 10 9 9 9 8 8 8 8 8 8 8 8
11 11 11 11 12 11 11 12 12 11 11 11 11 11 11 11 11 11 12 13 12 11 10 11 11 11 10 9 9 9 8 8 8 8 8 8 8 7
12 11 11 11 11 11 11 11 11 11 10 10 10 10 10 10 10 10 11 12 12 11 10 10 11 11 11 10 9 9 8 8 8 7 7 7 7 6
12 11 11 11 11 11 11 11 11 11 10 10 10 10 10 10 9 9 9 10 10 9 9 9 10 10 11 11 10 9 8 8 7 7 7 6 6 5
11 11 11 11 10 10 10 10 10 10 10 10 10 10 9 9 8 8 9 9 8 8 8 8 9 9 10 10 9 9 9 8 7 7 7 7 6 6
11 11 10 10 10 9 9 9 10 10 10 10 9 9 9 8 9 9 9 9 8 8 7 7 7 8 9 8 9 9 8 8 7 6 6 7 7 6
11 10 9 9 9 9 9 9 9 9 9 9 9 9 9 9 9 9 9 10 10 9 8 8 7 7 8 8 9 8 8 8 7 6 6 7 7 6
10 10 10 10 10 10 10 9 9 9 9 9 9 9 9 9 9 9 10 10 10 10 9 9 9 9 8 8 8 8 8 8 7 7 7 7 7 6
10 11 11 11 11 10 10 10 10 9 9 9 10 9 9 9 9 9 9 10 10 9 9 8 9 9 10 10 8 7 7 7 7 7 7 7 6 6
11 11 11 11 11 11 11 10 10 9 9 9 9 9 9 10 9 10 10 9 9 9 9 9 8 8 9 9 8 8 7 6 6 6 6 6 6 6
11 11 11 11 11 11 11 10 10 9 9 10 9 9 10 10 10 10 9 9 9 9 9 9 8 7 7 7 9 9 8 7 6 5 5 5 5 5
11 11 11 11 11 11 10 10 10 10 9 10 9 9 10 10 10 10 9 9 9 9 9 8 7 7 8 8 9 9 8 7 7 6 6 5 4 4
11 11 11 11 11 10 10 10 10 10 10 10 10 10 10 10 10 10 9 9 9 9 9 9 8 8 8 8 8 8 8 7 8 7 7 6 5 4
Wind_Speed
13 14 13 13 12 12 13 13 12 10 10 8 5 6 7 8 10 9 8 10 9 9 9 10 12 13 13 14 14 14 14 14 13 13 11 9 7 2
10 12 12 12 12 12 12 12 12 11 7 5 4 8 8 9 10 10 11 14 14 12 12 13 14 14 14 14 14 15 15 14 13 12 11 10 9 8
7 8 8 9 9 10 11 12 11 10 8 4 6 10 10 10 9 9 10 11 13 15 15 16 16 16 16 16 16 16 15 14 13 12 11 10 9 8
5 4 5 5 6 6 7 10 10 10 9 10 9 9 9 9 9 9 10 12 13 17 18 18 17 17 17 17 16 16 15 14 13 12 10 9 9 8
5 5 5 6 5 3 2 1 3 6 9 11 10 9 9 9 10 11 12 11 13 16 17 17 16 16 16 16 15 14 13 13 13 13 12 10 9 9
5 5 5 5 4 5 5 6 7 8 8 9 9 9 9 10 11 12 11 10 10 11 12 15 17 17 18 16 15 13 13 12 12 12 12 11 10 10
3 3 4 5 6 6 7 9 11 9 8 7 7 7 8 9 10 11 11 11 10 9 10 10 10 11 13 16 16 15 15 15 15 14 14 14 13 12
2 2 4 8 12 13 13 13 12 11 9 6 6 8 9 8 8 9 11 10 9 7 8 9 9 10 10 12 13 14 15 15 14 14 14 14 13 12
2 3 6 9 11 13 14 15 13 11 6 7 10 10 9 8 8 8 6 8 8 7 7 8 8 10 10 12 13 14 14 14 14 15 15 15 14 12
3 4 7 9 9 11 12 13 12 10 9 10 10 10 10 8 6 8 10 10 8 5 4 6 7 8 9 10 11 12 12 11 11 12 14 15 15 11
6 6 8 9 7 8 11 13 13 11 14 17 15 13 13 10 5 5 8 8 8 6 3 4 5 6 6 7 9 10 10 9 7 8 11 15 18 14
8 7 7 9 6 3 10 12 12 11 12 13 12 11 10 8 4 1 5 6 8 7 3 1 4 4 5 4 4 4 4 6 8 10 11 12 15 12
10 9 8 11 8 3 6 10 12 12 11 11 10 9 8 7 7 7 7 3 4 6 4 2 3 3 3 5 4 4 5 6 5 4 6 5 5 9
9 9 10 13 11 8 8 11 11 10 9 8 8 7 8 8 9 10 11 11 10 8 4 2 3 1 2 3 3 3 4 6 7 7 7 3 2 3
8 14 16 16 15 11 12 10 8 7 7 7 7 8 9 9 9 9 9 9 8 7 6 3 4 3 3 3 3 3 4 5 7 8 8 7 7 9
12 15 15 12 11 12 10 7 6 6 6 7 8 8 8 8 7 7 7 8 8 9 7 6 5 3 4 3 3 4 4 5 6 8 9 8 7 8
15 13 13 12 12 11 9 8 7 7 7 8 8 8 8 7 7 6 5 6 7 7 8 6 5 4 4 4 3 3 4 5 6 7 8 8 8 8
16 14 13 13 12 11 10 9 9 9 9 8 8 8 8 8 7 7 6 6 6 5 5 3 3 5 6 4 3 4 5 6 7 7 8 9 9 9
14 13 13 13 12 11 10 10 10 10 9 8 8 8 8 8 8 7 6 6 5 5 4 3 1 1 2 2 4 1 4 6 8 8 9 9 10 10
13 13 13 13 12 12 11 10 10 11 9 9 9 9 8 8 7 7 7 6 5 4 4 4 3 3 3 4 3 1 6 4 7 9 9 9 10 9
13 12 13 13 12 12 11 10 11 11 11 10 9 9 8 8 7 7 7 5 2 4 4 5 4 0 3 4 4 2 1 6 3 5 8 9 11 11
14 12 13 13 13 12 11 11 11 11 12 10 10 9 8 7 7 7 7 7 5 4 4 5 4 3 2 3 4 5 4 3 7 12 7 3 8 10
13 12 13 13 13 13 12 13 13 12 12 11 10 9 8 7 7 7 6 6 6 5 4 4 4 3 1 2 4 5 6 7 6 6 3 12 11 12
Wind_Direction
268 264 257 255 252 248 243 238 235 234 223 197 171 162 144 130 130 117 103 89 88 93 99 100 96 93 90 85 79 74 71 69 68 65 62 64 72 97
274 269 264 258 251 245 238 232 227 232 225 183 160 143 130 124 121 108 99 88 76 88 102 104 96 89 85 81 77 72 67 63 61 61 61 62 61 59
296 285 276 273 266 256 246 236 226 218 207 144 129 128 125 127 129 125 114 95 83 86 99 100 94 89 83 78 74 71 67 61 56 53 51 51 52 51
315 321 323 311 297 282 259 239 226 211 181 149 138 135 132 129 131 126 113 100 94 89 93 94 92 87 81 77 73 69 65 62 56 52 50 52 52 45
308 322 333 341 353 7 5 184 178 163 151 143 139 139 140 141 134 118 110 111 105 107 103 99 96 92 86 81 76 72 69 65 59 53 48 44 38 26
313 317 329 345 18 69 78 93 100 106 117 128 131 139 146 155 142 130 122 116 113 110 106 112 113 103 91 82 78 76 72 67 60 52 42 33 22 12
331 338 14 40 59 90 104 104 104 103 104 113 130 145 151 161 146 131 121 119 115 120 123 123 120 104 94 85 74 67 65 63 59 52 44 37 32 25
41 54 101 104 96 90 97 101 111 122 133 144 151 140 141 135 126 133 139 133 122 118 113 102 97 87 78 77 71 69 66 60 53 46 40 38 36 34
91 70 90 106 121 116 106 100 88 81 107 122 118 118 116 115 132 137 127 120 111 128 129 115 108 101 96 90 87 79 71 63 55 47 40 33 27 26
143 119 112 117 118 124 123 111 96 74 80 96 97 94 91 84 84 102 113 115 115 109 136 129 131 125 119 105 99 89 81 72 60 46 34 21 5 351
167 145 132 121 110 123 125 118 107 91 73 78 81 84 71 57 44 139 155 161 141 127 135 136 147 150 133 127 129 132 117 103 91 69 47 27 2 341
161 140 103 119 126 152 144 134 124 118 114 106 101 106 98 89 54 110 187 180 151 133 106 165 158 174 144 117 103 116 115 122 128 103 75 45 12 0
173 165 134 122 120 112 157 143 135 133 128 125 120 116 110 106 102 75 40 54 130 114 121 180 163 187 168 148 108 65 41 26 29 90 89 71 12 352
172 152 130 125 115 108 117 121 134 149 142 139 135 130 121 108 92 80 67 62 60 76 54 70 110 68 150 135 98 63 67 40 15 4 357 0 316 316
137 114 126 128 121 110 118 135 160 157 149 147 138 127 113 107 108 104 96 96 95 97 100 86 111 100 70 77 72 42 29 34 22 6 353 354 1 359
123 122 129 134 122 118 142 166 177 157 156 141 129 124 126 139 144 141 146 150 133 121 112 97 77 71 93 79 47 41 21 12 11 6 348 347 357 4
144 147 150 150 150 157 163 165 154 150 150 138 137 143 149 148 138 131 140 140 133 130 133 135 127 101 62 9 27 19 360 359 5 356 332 347 351 2
158 160 161 161 161 161 159 157 158 156 152 148 150 153 152 149 146 149 153 138 129 121 112 113 159 178 178 144 30 350 345 354 348 343 338 342 345 356
174 167 166 166 164 162 160 159 158 152 153 155 151 150 150 153 155 156 152 145 138 128 115 102 68 331 272 156 145 118 343 339 334 337 342 341 342 349
189 172 170 168 167 166 164 159 153 155 164 159 152 152 155 156 157 161 159 154 145 139 128 112 82 46 19 3 334 236 173 328 340 336 336 335 338 334
203 178 174 171 170 168 163 159 157 163 166 164 158 162 162 160 158 158 137 116 171 146 123 99 80 196 272 274 284 0 121 178 226 302 325 335 342 338
203 183 178 175 173 170 167 166 164 164 167 174 163 169 171 165 156 157 153 165 170 140 124 117 147 211 255 344 338 340 340 324 233 221 243 299 344 341
201 188 179 179 177 176 176 177 175 172 175 179 170 174 175 172 168 165 164 170 162 157 166 163 168 190 287 342 334 338 345 330 329 324 286 193 209 225
Height
1442 1442 1441 1442 1441 1441 1441 1442 1444 1445 1446 1448 1450 1452 1455 1458 1460 1462 1464 1465 1466 1467 1468 1469 1469 1470 1471 1472 1473 1474 1475 1477 1479 1481 1483 1485 1487 1489
1437 1435 1435 1435 1434 1433 1433 1435 1436 1439 1442 1444 1446 1449 1453 1456 1458 1460 1462 1463 1464 1465 1467 1468 1469 1470 1470 1471 1472 1473 1474 1476 1477 1479 1480 1482 1483 1484
1433 1431 1430 1429 1428 1427 1427 1428 1430 1433 1437 1440 1444 1447 1450 1454 1457 1459 1461 1462 1462 1464 1465 1467 1468 1470 1471 1472 1473 1473 1474 1475 1477 1478 1479 1479 1480 1481
1432 1430 1428 1426 1424 1422 1421 1422 1424 1427 1432 1436 1441 1445 1449 1453 1456 1459 1461 1462 1462 1464 1466 1467 1469 1470 1471 1473 1473 1473 1474 1475 1476 1476 1477 1477 1477 1478
1432 1430 1428 1426 1422 1419 1417 1417 1419 1423 1428 1434 1438 1443 1448 1452 1456 1459 1462 1464 1465 1466 1468 1469 1470 1471 1472 1473 1473 1474 1475 1475 1475 1475 1475 1475 1475 1475
1431 1430 1428 1426 1424 1421 1418 1417 1419 1422 1427 1432 1437 1442 1447 1453 1457 1460 1463 1466 1468 1470 1470 1471 1472 1472 1473 1474 1474 1475 1475 1475 1474 1474 1473 1473 1473 1472
1431 1430 1429 1427 1426 1424 1422 1421 1422 1425 1429 1433 1439 1443 1448 1453 1457 1460 1463 1467 1469 1472 1473 1474 1475 1475 1475 1475 1475 1475 1475 1475 1474 1474 1473 1472 1471 1471
1431 1430 1430 1429 1428 1427 1427 1427 1429 1431 1435 1438 1443 1447 1451 1454 1457 1461 1464 1467 1470 1473 1474 1476 1477 1477 1476 1476 1477 1477 1477 1477 1476 1475 1474 1472 1471 1469
1431 1431 1431 1430 1431 1431 1432 1434 1436 1439 1442 1445 1447 1450 1453 1455 1459 1462 1464 1467 1470 1472 1474 1476 1478 1478 1478 1478 1479 1479 1478 1478 1477 1475 1474 1472 1470 1467
1431 1432 1432 1433 1435 1436 1437 1438 1441 1443 1446 1448 1450 1452 1454 1456 1459 1462 1464 1466 1470 1472 1474 1477 1479 1480 1480 1479 1480 1479 1478 1477 1476 1474 1472 1470 1468 1466
1430 1432 1433 1435 1437 1439 1440 1441 1443 1446 1448 1450 1452 1454 1456 1458 1461 1464 1467 1469 1471 1473 1475 1477 1479 1481 1481 1481 1480 1479 1478 1477 1475 1472 1470 1468 1465 1463
1429 1431 1433 1435 1438 1440 1442 1443 1445 1447 1450 1452 1454 1456 1458 1460 1461 1464 1467 1469 1471 1473 1474 1477 1479 1480 1481 1481 1481 1481 1479 1477 1474 1471 1468 1466 1463 1461
1428 1430 1432 1434 1437 1440 1443 1445 1446 1449 1452 1454 1456 1458 1460 1461 1463 1464 1465 1468 1470 1472 1475 1476 1478 1480 1480 1481 1481 1480 1479 1477 1475 1472 1468 1464 1461 1458
1426 1428 1430 1433 1436 1440 1443 1445 1448 1451 1454 1456 1458 1460 1461 1463 1464 1464 1466 1467 1468 1471 1473 1476 1478 1478 1480 1480 1480 1480 1478 1477 1475 1472 1469 1465 1462 1458
1424 1426 1429 1433 1437 1441 1444 1447 1450 1453 1455 1457 1459 1460 1462 1463 1465 1466 1467 1469 1470 1473 1475 1476 1478 1479 1479 1479 1479 1479 1478 1476 1474 1470 1467 1465 1462 1458
1422 1425 1429 1433 1437 1441 1445 1448 1451 1453 1455 1457 1459 1460 1462 1465 1468 1470 1471 1473 1474 1475 1475 1476 1476 1478 1479 1478 1479 1478 1477 1476 1473 1470 1467 1464 1460 1456
1421 1425 1430 1433 1438 1442 1445 1448 1450 1452 1455 1457 1459 1462 1464 1467 1469 1471 1472 1474 1475 1476 1476 1477 1476 1477 1476 1477 1478 1478 1477 1475 1473 1469 1466 1463 1459 1455
1421 1426 1430 1433 1438 1442 1445 1447 1450 1453 1455 1458 1460 1463 1465 1467 1470 1472 1473 1475 1476 1476 1477 1477 1477 1477 1477 1476 1477 1477 1476 1474 1472 1469 1466 1462 1458 1454
1421 1426 1429 1433 1437 1441 1445 1447 1450 1453 1455 1458 1461 1463 1466 1468 1470 1472 1473 1475 1475 1476 1476 1476 1476 1475 1475 1475 1474 1474 1474 1473 1471 1468 1465 1461 1457 1453
1420 1424 1428 1432 1437 1441 1444 1447 1450 1453 1456 1459 1462 1464 1466 1468 1470 1471 1473 1474 1475 1475 1476 1475 1475 1475 1475 1476 1475 1474 1472 1472 1470 1467 1464 1460 1456 1452
1418 1423 1427 1432 1436 1440 1444 1447 1450 1453 1456 1459 1462 1464 1466 1468 1469 1471 1471 1472 1473 1475 1475 1475 1474 1473 1473 1474 1474 1474 1472 1468 1466 1464 1461 1459 1455 1450
1417 1421 1426 1430 1435 1439 1443 1446 1450 1452 1455 1458 1461 1463 1465 1467 1469 1470 1470 1471 1473 1474 1474 1474 1473 1474 1475 1475 1473 1472 1470 1468 1464 1461 1458 1457 1454 1449
1414 1419 1424 1429 1433 1437 1441 1445 1449 1452 1454 1457 1460 1462 1464 1466 1468 1469 1470 1471 1472 1473 1473 1474 1474 1474 1474 1473 1472 1470 1468 1466 1464 1461 1458 1454 1451 1447